User: anonymous
Location: Hartman Creek State Park
(44.3257°N, 89.2134°W)
Time: 23:46:11
(UTC-05:00)
Language:

Terra - Orbit

View from above orbital plane
View from above orbital plane
View from above satellite
View from above satellite

Ground track
Ground track

The orbit data is extracted from the following two-line orbital elements,

1 25994U 99068A   14294.72871932  .00000628  00000-0  14939-3 0  7476
2 25994 098.2004 007.6431 0001422 093.9897 266.1451 14.57123773789491
Epoch (UTC): 21 October 2014 17:29:21
Eccentricity: 0.0001422
inclination: 98.2004°
perigee height: 701 km
apogee height: 703 km
right ascension of ascending node: 7.6431°
argument of perigee: 93.9897°
revolutions per day: 14.57123773
mean anomaly at epoch: 266.1451°
orbit number at epoch: 78949

The dashed part of the orbit path shows where the satellite is in the earth's shadow,  

DLR